Location: Newark
(54.3386°S, 169.8415°W)
Time: 23:18:58
(UTC+00:00)

Transit 2A Rocket - Pass Details

Date: 27 October 2019
Orbit: 594 x 909 km, 66.7° (Epoch: 16 November)

Event Time Altitude Azimuth Distance (km) Brightness Sun altitude
Rises 01:06:10 0° 28° (NNE) 3,238 8.5 41.8°
Reaches altitude 10° 01:09:58 10° 55° (NE) 2,399 7.6 41.4°
Maximum altitude 01:12:12 13° 79° (E) 2,268 7.3 41.2°
Drops below altitude 10° 01:14:30 10° 103° (ESE) 2,490 7.4 41.0°
Sets 01:18:37 0° 130° (SE) 3,497 7.9 40.6°
